Home   Weather   Mildura   Past weeks
Flag for Australia

Past Weather in Mildura, Victoria, Australia — Yesterday and Last 2 Weeks

Now
63 °F

Mild.


Feels Like: 63 °F
Forecast: 77 / 58 °F
Wind: 8 mph from Northeast

Location: Mildura Airport

Current Time: May 23, 2019 at 9:20:02 pm

Latest Report: May 23, 2019 at 8:00 pm


Visibility: N/A

Pressure: 30.17 "Hg

Humidity: 56%

Dew Point: 47 °F

Location of MilduraLocation

Past Weather in Mildura — Graph

°F

Mildura Temperature Yesterday

Maximum temperature yesterday: 78 °F (at 3:00 pm)
Minimum temperature yesterday: 46 °F (at 7:00 am)
Average temperature yesterday: 60 °F

High & Low Weather Summary for the Past Weeks

 TemperatureHumidityPressure
High79 °F (May 23, 3:00 pm)100% (May 9, 8:00 pm)30.49 "Hg (May 9, 8:00 pm)
Low41 °F (May 14, 7:00 am)27% (May 22, 3:00 pm)29.77 "Hg (May 9, 3:00 pm)
Average57 °F67%30.28 "Hg
* Reported May 8 7:00 pm — May 23 7:00 pm, Mildura. Weather by CustomWeather, © 2019

Note: Actual official high and low records may vary slightly from our data, if they occured in-between our weather recording intervals... More about our weather records

Advertising

Mildura Weather History for the Previous 24 Hours

Scroll right to see more
 ConditionsComfort  
Time TempWeatherWind HumidityBarometerVisibility
7:00 pm
Thu, May 23
65 °FMild.6 mph51%30.17 "HgN/A
6:00 pm69 °FMild.7 mph46%30.17 "HgN/A
5:00 pm77 °FPleasantly warm.7 mph34%30.17 "HgN/A
4:00 pm78 °FPleasantly warm.13 mph32%30.18 "HgN/A
3:00 pm79 °FPleasantly warm.13 mph33%30.19 "HgN/A
2:00 pm78 °FPleasantly warm.10 mph32%30.21 "HgN/A
1:00 pm78 °FPleasantly warm.10 mph33%30.24 "HgN/A
12:00 pm75 °FMild.14 mph35%30.28 "HgN/A
11:00 am72 °FMild.15 mph36%30.31 "HgN/A
10:00 am67 °FMild.10 mph44%30.32 "HgN/A
9:00 am60 °FPassing clouds.8 mph57%30.33 "Hg22 mi
8:00 am54 °FCool.7 mph73%30.32 "HgN/A
7:00 am51 °FCool.6 mph75%30.31 "HgN/A
6:00 am53 °FCool.9 mph71%30.29 "HgN/A
5:00 am51 °FCool.8 mph75%30.29 "HgN/A
4:00 am52 °FCool.6 mph73%30.30 "HgN/A
3:00 am53 °FCool.6 mph69%30.31 "HgN/A
2:00 am53 °FCool.7 mph67%30.30 "HgN/A
1:00 am54 °FCool.7 mph65%30.31 "HgN/A
12:00 am55 °FCool.6 mph62%30.32 "HgN/A
11:00 pm
Wed, May 22
56 °FCool.6 mph63%30.33 "HgN/A
10:00 pm58 °FRefreshingly cool.6 mph58%30.33 "HgN/A
9:00 pm59 °FCool.5 mph61%30.32 "HgN/A
Weather by CustomWeather, © 2019

See weather overview